Columbia Airport, CA

1:49 AM PDT on October 21, 2019 (GMT -0700)
Columbia Airport

Weather History for KO22 - July, 2019

Change the Weather History Date:

Thursday, July 18, 2019

  Actual Average (WUND) Record (WUND)
Temperature  
Mean Temperature 76 °F -  
Max Temperature 93 °F - - (-1)
Min Temperature 60 °F - - (-1)
Cooling Degree Days 12    
Growing Degree Days 26 (Base 50)    
Moisture  
Dew Point 52 °F    
Average Humidity 47    
Maximum Humidity 82    
Minimum Humidity 18    
Precipitation  
Precipitation 0.00 in - - ()
Sea Level Pressure  
Sea Level Pressure 29.94 in    
Wind  
Wind Speed 2 mph (SW)    
Max Wind Speed 9 mph    
Max Gust Speed 16 mph    
Visibility 10 miles    
Events      
Averages and records for this station are not official NWS values.
T = Trace of Precipitation, MM = Missing Value Source: NWS Daily Summary

Daily Weather History Graph

Daily Weather History Graph

Search for Another Location

Airport or City:

Astronomy

Jul. 18, 2019 Rise Set
Actual Time 5:53 AM PDT 8:22 PM PDT
Civil Twilight 5:22 AM PDT 8:52 PM PDT
Nautical Twilight 4:45 AM PDT 9:30 PM PDT
Astronomical Twilight 4:03 AM PDT 10:11 PM PDT
Moon 9:52 PM PDT (7/18) 7:26 AM PDT (7/18)
Length of Visible Light 15h 29m
Length of Day
14h 29m
Waning Gibbous, 97% of the Moon is Illuminated
Jul 18
Waning Gibbous
Jul 24
Last Quarter
Jul 31
New
Aug 7
First Quarter
Aug 15
Full

Hourly Weather History & Observations

Time (PDT) Temp. Heat Index Dew Point Humidity Pressure Visibility Wind Dir Wind Speed Gust Speed Precip Events Conditions
12:15 AM 66.2 °F - 53.6 °F 64% 29.96 in 10.0 mi Variable 4.6 mph - N/A   Clear
12:35 AM 66.2 °F - 53.6 °F 64% 29.96 in 10.0 mi Calm Calm - N/A   Clear
12:55 AM 66.2 °F - 53.6 °F 64% 29.96 in 10.0 mi Calm Calm - N/A   Clear
1:15 AM 64.4 °F - 53.6 °F 68% 29.96 in 10.0 mi Calm Calm - N/A   Clear
1:35 AM 64.4 °F - 53.6 °F 68% 29.96 in 10.0 mi Calm Calm - N/A   Clear
1:55 AM 62.6 °F - 53.6 °F 72% 29.96 in 10.0 mi Calm Calm - N/A   Clear
2:15 AM 62.6 °F - 53.6 °F 72% 29.96 in 10.0 mi Calm Calm - N/A   Clear
2:35 AM 62.6 °F - 53.6 °F 72% 29.95 in 10.0 mi Calm Calm - N/A   Clear
2:55 AM 62.6 °F - 53.6 °F 72% 29.95 in 10.0 mi Calm Calm - N/A   Clear
3:15 AM 62.6 °F - 53.6 °F 72% 29.95 in 10.0 mi Calm Calm - N/A   Clear
3:35 AM 62.6 °F - 53.6 °F 72% 29.95 in 10.0 mi Calm Calm - N/A   Clear
3:55 AM 62.6 °F - 53.6 °F 72% 29.95 in 10.0 mi Calm Calm - N/A   Clear
4:15 AM 60.8 °F - 53.6 °F 77% 29.95 in 10.0 mi Calm Calm - N/A   Clear
4:35 AM 60.8 °F - 53.6 °F 77% 29.95 in 10.0 mi Calm Calm - N/A   Clear
4:55 AM 60.8 °F - 53.6 °F 77% 29.95 in 10.0 mi Calm Calm - N/A   Clear
5:15 AM 60.8 °F - 53.6 °F 77% 29.95 in 10.0 mi Calm Calm - N/A   Clear
5:35 AM 60.8 °F - 53.6 °F 77% 29.95 in 10.0 mi Calm Calm - N/A   Clear
5:55 AM 60.8 °F - 53.6 °F 77% 29.96 in 10.0 mi Calm Calm - N/A   Clear
6:15 AM 60.8 °F - 55.4 °F 82% 29.96 in 10.0 mi Calm Calm - N/A   Clear
6:35 AM 62.6 °F - 55.4 °F 77% 29.96 in 10.0 mi Calm Calm - N/A   Clear
6:55 AM 62.6 °F - 55.4 °F 77% 29.96 in 10.0 mi Calm Calm - N/A   Clear
7:15 AM 66.2 °F - 57.2 °F 73% 29.97 in 10.0 mi Calm Calm - N/A   Clear
7:35 AM 68.0 °F - 59.0 °F 73% 29.97 in 10.0 mi Calm Calm - N/A   Clear
7:55 AM 71.6 °F - 59.0 °F 64% 29.97 in 10.0 mi Calm Calm - N/A   Clear
8:15 AM 75.2 °F - 59.0 °F 57% 29.97 in 10.0 mi Calm Calm - N/A   Clear
8:35 AM 78.8 °F - 57.2 °F 47% 29.98 in 10.0 mi Calm Calm - N/A   Clear
8:55 AM 80.6 °F 80.3 °F 53.6 °F 39% 29.98 in 10.0 mi Variable 4.6 mph - N/A   Clear
9:15 AM 82.4 °F - 51.8 °F 35% 29.98 in 10.0 mi South 6.9 mph - N/A   Clear
9:35 AM 82.4 °F - 51.8 °F 35% 29.97 in 9.0 mi South 5.8 mph - N/A   Clear
9:55 AM 82.4 °F - 51.8 °F 35% 29.97 in 10.0 mi Variable 3.5 mph - N/A   Clear
10:15 AM 84.2 °F - 51.8 °F 33% 29.97 in 10.0 mi Variable 4.6 mph - N/A   Clear
10:35 AM 86.0 °F - 51.8 °F 31% 29.97 in 10.0 mi South 5.8 mph - N/A   Clear
10:55 AM 86.0 °F - 51.8 °F 31% 29.97 in 10.0 mi South 4.6 mph - N/A   Clear
11:15 AM 87.8 °F - 50.0 °F 27% 29.97 in 10.0 mi Calm Calm - N/A   Clear
11:35 AM 89.6 °F - 46.4 °F 22% 29.97 in 10.0 mi SSW 5.8 mph - N/A   Clear
11:55 AM 89.6 °F - 44.6 °F 21% 29.97 in 10.0 mi Variable 5.8 mph 11.5 mph N/A   Clear
12:15 PM 91.4 °F - 44.6 °F 20% 29.96 in 10.0 mi SSE 5.8 mph - N/A   Clear
12:35 PM 91.4 °F - 42.8 °F 18% 29.96 in 10.0 mi South 4.6 mph - N/A   Clear
12:55 PM 91.4 °F - 48.2 °F 23% 29.96 in 10.0 mi Variable 5.8 mph - N/A   Clear
1:15 PM 91.4 °F - 46.4 °F 21% 29.96 in 10.0 mi WSW 9.2 mph 16.1 mph N/A   Clear
1:55 PM 91.4 °F - 48.2 °F 23% 29.95 in 10.0 mi WSW 5.8 mph - N/A   Clear
2:15 PM 93.2 °F - 48.2 °F 21% 29.95 in 10.0 mi SSE 6.9 mph - N/A   Clear
2:35 PM 91.4 °F - 46.4 °F 21% 29.94 in 10.0 mi Variable 5.8 mph 13.8 mph N/A   Clear
2:55 PM 93.2 °F - 46.4 °F 20% 29.94 in 10.0 mi WSW 6.9 mph 13.8 mph N/A   Clear
3:15 PM 91.4 °F - 46.4 °F 21% 29.93 in 10.0 mi SW 8.1 mph 13.8 mph N/A   Clear
3:35 PM 93.2 °F - 46.4 °F 20% 29.93 in 10.0 mi SSW 4.6 mph - N/A   Clear
3:55 PM 91.4 °F - 46.4 °F 21% 29.93 in 10.0 mi Variable 6.9 mph - N/A   Clear
4:15 PM 91.4 °F - 46.4 °F 21% 29.92 in 10.0 mi WSW 8.1 mph - N/A   Clear
4:35 PM 91.4 °F - 44.6 °F 20% 29.92 in 10.0 mi WSW 6.9 mph - N/A   Clear
4:55 PM 91.4 °F - 44.6 °F 20% 29.92 in 10.0 mi Variable 4.6 mph - N/A   Clear
5:15 PM 89.6 °F - 44.6 °F 21% 29.91 in 10.0 mi SW 8.1 mph - N/A   Clear
5:35 PM 89.6 °F - 44.6 °F 21% 29.91 in 10.0 mi WSW 5.8 mph - N/A   Clear
5:55 PM 89.6 °F - 44.6 °F 21% 29.91 in 10.0 mi SW 5.8 mph - N/A   Clear
6:15 PM 89.6 °F - 46.4 °F 22% 29.90 in 10.0 mi SW 3.5 mph - N/A   Clear
6:35 PM 89.6 °F - 46.4 °F 22% 29.90 in 10.0 mi Calm Calm - N/A   Clear
6:55 PM 87.8 °F - 51.8 °F 29% 29.89 in 10.0 mi SW 6.9 mph - N/A   Clear
7:15 PM 86.0 °F - 51.8 °F 31% 29.90 in 10.0 mi SW 5.8 mph - N/A   Clear
7:35 PM 84.2 °F - 51.8 °F 33% 29.90 in 10.0 mi SW 6.9 mph - N/A   Clear
7:55 PM 84.2 °F - 51.8 °F 33% 29.90 in 10.0 mi WSW 3.5 mph - N/A   Clear
8:15 PM 80.6 °F 80.5 °F 55.4 °F 42% 29.91 in 10.0 mi West 6.9 mph - N/A   Clear
8:35 PM 78.8 °F - 55.4 °F 44% 29.91 in 10.0 mi West 5.8 mph - N/A   Clear
8:55 PM 77.0 °F - 55.4 °F 47% 29.91 in 10.0 mi Variable 4.6 mph - N/A   Clear
9:15 PM 75.2 °F - 55.4 °F 50% 29.92 in 10.0 mi Calm Calm - N/A   Clear
9:35 PM 73.4 °F - 55.4 °F 53% 29.92 in 10.0 mi Calm Calm - N/A   Clear
9:55 PM 71.6 °F - 55.4 °F 57% 29.93 in 10.0 mi Calm Calm - N/A   Clear
10:15 PM 69.8 °F - 55.4 °F 60% 29.92 in 10.0 mi Calm Calm - N/A   Clear
10:35 PM 69.8 °F - 55.4 °F 60% 29.92 in 10.0 mi Calm Calm - N/A   Clear
10:55 PM 69.8 °F - 55.4 °F 60% 29.92 in 10.0 mi Calm Calm - N/A   Clear
11:15 PM 69.8 °F - 55.4 °F 60% 29.92 in 10.0 mi Calm Calm - N/A   Clear
11:35 PM 68.0 °F - 55.4 °F 64% 29.92 in 10.0 mi Calm Calm - N/A   Clear
11:55 PM 68.0 °F - 55.4 °F 64% 29.92 in 10.0 mi Calm Calm - N/A   Clear